RH
31 32 26 23 21 21 29 40 58 69 70 69 69 75 76 63 50 44 43 48 58 65 67 58 47 46 45 45 44 41 40 36 30 28 26 27 29 32 36 42 48 50 55 58 54 52 52 54 58 62 67 62 57 54 52 54 56 58 60 62 64 63 63 60 57 57 55 52 51 42 28 21 19 20 20 18 15 14 16 15 18 18 15 18 14 16 26 27
30 32 30 26 24 21 22 30 47 63 71 73 68 70 79 73 55 46 43 45 56 66 70 62 50 48 49 47 46 44 41 36 32 30 27 27 28 29 33 38 43 45 49 51 49 50 50 53 57 59 65 62 58 55 52 53 55 57 58 60 63 62 60 58 59 59 57 55 53 47 36 25 19 19 21 18 15 14 15 15 16 18 17 19 13 16 25 22
32 30 31 30 27 24 21 26 37 51 65 73 70 66 75 80 65 49 44 51 60 63 66 66 57 51 53 50 48 47 44 41 36 30 27 27 27 28 31 35 38 41 46 47 45 46 48 53 57 60 64 61 58 57 53 52 54 57 57 59 62 59 57 60 62 60 59 58 54 51 43 31 21 18 21 18 15 14 14 14 14 16 16 20 16 15 24 21
35 31 30 33 31 27 22 24 31 41 55 66 69 67 72 79 74 56 46 54 64 63 65 69 63 54 55 54 52 52 48 46 38 28 28 28 27 29 31 33 34 38 43 45 45 43 44 52 58 60 62 59 56 57 55 52 52 54 55 60 61 56 55 61 64 61 60 59 56 54 48 39 27 18 19 18 16 15 16 14 13 14 13 17 18 16 22 23
37 35 31 34 34 30 25 24 27 34 47 58 65 70 73 76 77 64 50 51 57 62 69 74 69 57 56 57 56 55 52 50 36 26 30 28 28 30 31 31 32 36 40 42 44 42 41 49 58 60 61 58 55 57 56 51 50 50 53 59 57 53 54 58 61 60 59 58 57 55 51 46 35 22 18 17 16 16 17 14 12 13 11 14 19 16 18 21
36 35 32 35 35 32 28 26 25 28 39 53 62 70 74 75 78 72 55 50 52 60 69 74 72 61 58 61 58 56 53 45 32 25 28 28 29 32 30 29 29 32 35 38 40 40 40 46 56 59 60 59 55 56 55 50 48 48 51 55 55 55 54 55 59 59 58 59 57 56 55 51 43 30 20 16 17 16 15 14 12 12 11 14 18 16 15 17
34 34 35 37 37 32 28 27 26 25 34 49 59 67 73 74 81 80 64 53 54 60 64 69 76 68 60 64 64 59 49 39 33 28 27 28 31 34 29 27 28 29 32 34 34 37 38 41 51 56 58 59 55 55 54 48 47 49 49 50 53 56 54 56 61 60 59 59 58 57 58 55 49 39 27 19 18 18 15 13 13 11 11 16 19 16 14 15
34 35 36 38 38 34 30 28 28 25 30 44 56 64 71 73 79 83 73 59 57 61 62 68 81 79 66 65 64 57 47 39 37 33 28 29 33 35 31 27 27 28 29 32 32 35 37 38 45 52 56 58 57 57 53 48 48 49 48 46 49 52 52 56 60 61 62 60 60 59 59 58 53 46 34 24 21 19 16 14 12 11 12 17 19 17 15 16
34 36 38 38 36 36 34 31 30 28 25 33 48 60 71 76 78 83 77 64 61 62 65 75 85 85 76 68 63 54 45 40 38 36 32 32 35 37 33 28 26 26 28 32 33 34 37 38 41 49 54 54 56 58 55 52 48 48 48 45 46 50 50 54 57 59 62 62 62 62 61 59 56 51 43 32 24 19 17 15 13 11 13 17 18 18 16 17
35 35 37 38 36 36 39 37 34 33 27 25 38 56 69 77 79 83 78 68 68 66 68 85 92 89 84 75 66 54 45 44 41 37 36 35 36 37 34 30 26 24 27 32 33 33 37 39 42 48 52 53 57 60 60 56 48 46 49 45 46 49 49 51 54 55 59 62 63 64 64 62 59 57 52 41 30 22 19 18 15 13 14 16 17 19 18 18
37 35 34 38 39 36 41 41 37 38 33 25 32 52 66 73 77 81 80 71 74 72 68 87 99 96 92 81 68 54 46 48 45 39 39 39 37 37 35 30 27 25 26 29 30 32 35 40 44 46 47 50 59 67 68 61 50 47 49 47 48 49 49 50 51 52 55 59 62 64 64 63 61 58 58 53 41 30 23 19 18 15 14 15 17 19 19 19
39 38 34 37 41 38 39 41 38 37 35 28 29 44 60 69 74 78 81 73 73 75 67 84 102 100 100 92 76 61 52 50 49 46 42 42 41 39 36 31 28 27 27 29 29 30 33 40 46 46 47 48 56 67 71 65 56 50 50 51 51 49 48 49 50 51 52 54 58 64 65 63 61 59 62 63 53 40 29 20 18 17 15 15 17 19 20 20
41 40 37 36 41 41 39 38 38 36 34 29 27 38 54 65 70 75 82 76 73 75 70 84 100 99 102 98 82 71 64 58 57 54 47 46 47 43 40 35 31 32 34 34 30 30 36 43 46 46 48 50 58 67 70 67 60 55 53 53 53 52 49 47 48 49 50 51 54 62 67 63 61 60 62 65 58 48 36 24 19 18 17 16 17 19 21 21
44 41 40 39 39 42 42 38 36 37 35 32 31 39 52 64 68 73 82 77 74 77 76 86 96 98 101 95 85 81 76 72 68 62 55 52 50 47 43 38 38 40 41 38 34 36 41 44 47 50 51 54 63 71 71 69 63 59 57 54 53 54 50 46 45 46 49 50 50 58 63 62 61 61 61 63 61 53 44 33 23 19 18 17 17 18 20 21
46 41 42 44 40 41 45 42 37 39 41 40 38 38 45 60 66 71 81 78 74 76 79 90 95 97 101 95 91 89 85 83 77 68 63 59 54 48 46 44 46 46 43 43 42 42 45 46 51 59 62 63 68 73 73 70 65 61 61 57 54 54 51 46 43 44 49 49 47 54 58 55 58 60 60 62 63 56 49 41 30 21 19 19 18 18 19 20
42 40 43 46 44 42 46 48 44 44 46 44 41 36 37 52 63 70 81 80 76 74 79 92 96 96 102 96 90 92 92 88 80 73 70 68 61 52 47 46 48 47 46 50 49 46 49 55 59 63 69 74 73 72 72 71 66 62 60 57 55 57 53 48 43 41 45 47 46 51 53 49 50 54 57 60 62 58 51 45 38 27 20 20 19 17 18 19
39 42 47 47 46 43 46 52 52 49 48 45 40 37 36 44 58 70 80 81 78 76 77 84 91 96 101 97 91 92 94 89 82 77 76 76 73 61 50 47 50 51 50 53 53 51 54 61 64 64 70 79 79 76 76 73 67 62 59 58 60 60 52 47 44 39 42 47 47 47 48 44 43 48 54 57 59 57 53 48 44 36 26 22 21 18 17 18
44 47 51 49 46 45 48 54 56 53 49 45 41 41 42 43 53 67 79 83 79 79 82 83 89 97 100 98 93 89 89 90 86 80 80 81 81 72 56 49 51 53 55 56 56 57 60 65 69 68 69 76 78 80 79 73 66 63 61 60 61 59 49 46 45 39 39 46 49 47 46 41 37 42 49 53 56 56 54 50 46 42 34 27 25 23 19 17
55 54 55 54 51 49 52 57 61 59 49 46 44 44 45 42 46 62 77 85 86 86 88 89 93 97 97 95 92 90 88 88 88 86 86 85 84 79 68 56 51 55 59 59 60 62 64 69 75 74 72 72 74 76 75 71 67 64 63 62 62 59 51 45 43 39 39 44 46 47 47 41 34 36 41 46 53 55 55 53 47 44 40 33 29 28 25 20
66 64 63 60 57 56 58 59 62 61 52 48 49 46 46 44 48 65 77 85 91 89 84 86 91 94 95 93 93 93 91 89 91 90 89 89 85 81 80 73 61 61 61 58 60 62 65 73 74 69 68 68 71 72 72 71 69 64 63 64 64 60 51 44 41 37 39 45 46 45 45 39 32 32 36 40 46 50 52 54 50 45 42 39 34 30 30 26
72 73 70 65 65 65 65 62 58 59 57 53 51 48 47 44 46 58 70 79 87 88 84 84 88 95 97 95 91 89 91 95 95 92 90 91 89 84 84 81 74 71 62 57 61 63 70 76 67 61 63 65 69 72 72 73 72 68 65 66 68 63 51 45 43 34 34 43 44 42 42 38 30 29 32 35 41 45 48 51 53 48 43 41 39 35 32 29
82 81 77 74 74 73 70 67 59 59 63 62 56 49 44 40 37 44 59 73 83 87 87 83 86 95 98 95 90 87 92 96 96 95 92 93 95 89 80 74 74 73 64 62 67 70 75 71 58 58 64 65 68 72 73 74 75 74 71 71 71 64 52 47 44 35 32 38 40 38 38 35 27 26 29 31 35 42 45 47 51 51 47 43 41 40 37 32
89 87 88 87 83 78 73 69 64 61 64 68 64 50 42 37 32 40 56 71 82 89 89 83 85 94 97 97 94 91 93 94 96 97 93 94 97 92 80 69 65 69 72 72 70 69 68 59 54 61 65 66 69 70 71 75 78 77 74 74 72 62 54 49 42 36 33 33 34 34 34 32 24 22 24 25 30 37 42 45 48 50 50 46 43 41 40 38
91 90 93 92 88 83 77 72 69 65 63 66 64 51 42 37 33 42 58 70 80 90 92 85 86 91 93 96 95 92 93 92 94 96 93 94 96 93 85 72 64 69 76 74 67 65 58 52 58 64 66 69 70 69 72 78 81 78 74 75 71 62 59 53 39 33 33 32 32 33 34 32 23 19 20 21 26 31 35 39 42 45 48 48 47 43 41 41
92 91 90 88 86 85 82 77 72 70 66 65 65 57 48 44 43 47 58 72 78 86 95 90 87 90 88 94 97 93 94 93 93 95 93 92 93 93 88 77 73 76 77 74 72 69 60 56 62 66 66 68 70 70 70 74 80 78 72 72 72 67 67 59 43 36 38 37 35 34 36 33 25 22 23 24 26 26 27 30 33 35 39 43 46 47 45 43
89 88 86 85 84 83 83 80 75 75 74 71 69 64 57 49 49 49 53 71 78 81 95 93 89 91 86 93 99 96 97 96 93 95 94 95 93 90 88 82 79 78 75 75 77 72 65 62 63 64 63 64 68 69 64 68 77 77 69 70 73 72 70 62 48 41 42 40 36 35 38 37 32 26 24 27 28 25 25 24 26 28 29 31 34 40 45 47
87 86 84 83 82 80 79 76 74 76 77 79 74 65 58 48 49 50 49 69 78 75 89 95 90 89 87 90 96 98 99 93 93 98 96 96 96 92 93 89 82 77 73 78 84 75 65 64 62 60 61 62 66 65 62 66 74 73 68 69 70 65 64 61 51 45 43 42 41 39 41 45 42 31 21 24 28 26 25 22 22 24 24 26 27 29 36 44
86 85 83 81 78 75 76 73 72 73 74 78 77 67 58 52 55 57 55 70 76 68 81 95 89 86 89 91 95 99 97 89 92 98 95 95 98 95 95 89 78 74 72 79 84 73 63 63 59 55 58 59 57 56 57 62 67 69 66 66 62 55 57 58 51 46 45 48 49 45 44 48 47 36 22 20 25 23 21 20 19 19 22 24 25 26 27 34
82 81 81 80 73 70 72 71 69 72 71 71 76 73 63 58 61 64 63 65 66 65 77 90 89 90 95 95 96 98 96 93 94 95 95 97 98 96 96 89 76 74 77 77 79 75 70 66 58 55 56 53 49 49 50 52 56 59 57 52 48 47 52 56 53 50 50 54 54 48 46 48 45 37 26 20 20 19 17 16 17 17 21 23 24 25 26 28
75 74 75 72 67 67 69 69 69 70 70 70 73 72 66 63 65 72 74 64 63 71 78 87 92 93 96 96 98 99 95 97 97 96 99 98 97 97 94 88 80 81 85 82 81 80 74 69 65 62 58 52 49 50 50 50 49 50 48 43 44 47 52 54 53 52 55 57 53 48 46 47 46 39 30 21 15 16 16 15 16 17 20 23 23 24 24 26
70 68 66 63 62 63 65 70 70 67 68 68 69 75 80 77 70 73 73 61 63 75 77 86 95 92 92 94 97 97 95 98 98 98 100 97 98 99 95 95 93 92 95 92 87 82 77 77 74 68 62 56 54 54 54 54 51 50 48 46 50 55 57 57 55 55 60 57 48 45 43 46 47 40 31 22 14 16 18 16 18 20 21 24 24 23 21 21
67 64 63 63 61 59 61 66 66 61 63 63 67 82 93 93 84 74 60 49 61 77 76 83 93 93 92 93 92 92 92 96 97 98 99 97 100 99 95 98 95 94 98 95 89 85 81 77 71 68 65 61 60 60 59 57 54 53 52 50 53 58 61 61 58 57 58 51 41 41 44 45 41 33 29 25 16 16 17 17 19 22 23 24 24 23 22 22
64 63 63 65 62 59 60 60 58 57 59 60 67 82 92 96 91 74 56 48 61 76 74 76 85 89 91 95 95 92 91 93 94 97 97 96 99 98 94 93 87 83 84 84 84 87 88 82 75 73 71 66 63 62 61 58 55 54 53 52 51 53 60 61 55 55 53 45 39 40 45 45 36 26 24 23 16 15 17 16 18 21 24 26 24 23 23 24
63 63 63 63 62 60 59 57 55 54 56 60 66 79 92 95 85 71 62 56 59 70 73 72 77 86 92 95 95 91 92 95 96 97 98 97 100 99 97 97 91 83 80 83 86 86 88 90 85 79 74 69 65 61 57 51 53 55 51 51 49 47 51 50 47 50 47 41 39 41 45 43 34 26 21 18 15 15 16 15 15 18 22 25 25 23 23 23
62 62 61 61 60 57 55 55 55 55 56 58 64 77 88 87 77 71 68 61 59 68 75 74 76 87 96 95 93 91 90 91 94 98 99 98 99 98 97 96 92 87 85 88 89 84 82 82 79 75 71 67 67 67 61 56 61 62 57 58 55 46 43 41 42 45 43 43 42 40 40 35 28 24 21 20 17 14 14 15 15 17 18 21 22 21 21 20
63 61 61 62 60 56 54 53 55 61 60 56 65 75 72 68 67 66 64 61 58 62 70 77 83 90 96 97 97 96 93 90 92 97 99 98 97 96 95 92 90 87 81 81 82 80 79 78 75 75 73 68 68 66 61 61 65 64 64 64 54 45 45 46 46 44 46 52 46 36 35 31 27 24 20 20 19 15 15 15 15 15 15 15 16 17 17 18
64 62 62 64 60 56 56 54 53 64 67 58 63 66 58 57 63 62 60 60 61 63 65 72 83 88 93 98 99 97 96 95 94 96 98 98 97 96 95 93 91 88 80 76 77 74 75 80 79 78 79 75 70 67 65 63 61 62 65 59 48 50 53 50 50 49 52 55 43 32 34 32 29 27 20 18 18 16 16 15 14 14 14 14 15 17 18 19
65 61 62 63 58 54 56 56 53 62 71 65 61 62 60 60 60 60 61 58 60 71 73 72 75 78 85 95 98 97 97 96 96 97 97 97 96 94 94 92 88 86 82 78 80 76 74 84 86 80 82 80 73 74 78 75 67 61 59 51 50 59 59 53 56 57 58 57 45 34 33 31 30 27 21 20 19 18 17 15 14 14 15 16 17 18 19 19
64 63 65 61 56 54 55 57 57 63 75 75 66 61 60 58 56 57 62 59 58 68 78 79 75 72 80 90 95 98 98 96 96 95 94 95 94 89 88 88 85 85 83 80 82 78 73 82 89 84 83 84 80 79 80 78 74 67 60 54 55 58 55 52 54 53 54 55 48 40 34 30 28 22 19 20 19 18 18 16 16 15 15 16 16 17 18 18
65 65 67 61 53 53 55 59 64 67 73 75 70 62 56 54 55 57 61 63 63 66 74 81 79 74 77 84 90 95 98 98 95 91 89 87 87 87 87 86 85 85 86 83 82 81 76 80 88 89 88 90 89 81 72 67 70 71 67 63 62 64 61 56 54 51 50 52 50 45 39 30 24 19 19 20 18 17 17 17 18 17 16 16 17 18 18 18
67 65 67 61 54 53 55 59 63 61 61 65 68 66 60 55 55 58 61 64 68 71 72 76 81 81 79 82 87 92 97 99 97 93 89 85 84 87 85 81 82 84 87 87 83 81 80 79 85 93 93 91 86 78 72 68 64 65 67 66 64 66 67 67 63 54 50 51 48 45 42 31 23 21 20 19 18 18 18 18 19 19 18 17 18 19 19 18
63 60 64 62 56 55 54 54 54 53 55 58 58 57 54 51 53 58 63 63 66 72 74 77 82 85 87 89 89 92 95 98 99 97 92 86 81 77 74 75 81 82 82 83 81 79 79 79 85 92 92 87 81 77 79 75 66 65 69 69 68 65 64 67 64 55 53 53 46 44 46 34 23 23 21 18 18 19 18 19 19 18 18 18 19 19 18 18
58 59 64 60 55 56 55 51 48 48 47 47 46 44 41 41 45 53 63 68 68 69 74 80 83 83 87 91 91 94 96 96 98 98 94 89 80 72 71 74 80 81 81 83 83 81 81 82 88 95 93 87 80 77 79 78 75 74 70 66 68 65 60 59 56 51 53 52 46 49 51 38 25 24 22 19 19 19 20 20 19 19 19 20 19 18 17 17
59 61 66 62 56 54 51 45 41 40 39 39 40 40 37 36 37 40 48 59 65 66 68 73 78 80 83 88 90 92 96 97 96 95 95 93 87 79 75 75 78 79 78 79 79 78 81 83 88 97 100 96 90 86 84 82 78 72 65 61 62 59 60 64 59 53 53 49 45 50 49 36 28 26 23 20 20 20 20 21 21 21 22 22 21 20 19 19
63 62 64 65 62 54 46 41 39 39 40 42 41 40 39 38 37 35 37 43 50 56 61 63 68 75 81 87 90 90 94 98 96 94 94 96 94 88 83 81 80 75 73 75 76 77 82 82 82 89 92 89 86 80 73 70 69 66 65 65 64 61 63 64 60 60 58 49 45 48 44 33 27 26 23 22 23 21 20 22 21 21 22 23 23 22 21 20
68 65 63 66 66 59 49 43 43 43 42 43 43 42 41 39 36 36 37 39 40 45 52 58 64 72 78 85 93 95 96 97 98 98 97 97 96 91 86 83 79 74 75 80 82 81 83 83 81 82 78 72 70 66 60 60 67 70 70 69 68 68 68 67 68 67 58 51 52 49 40 33 27 25 25 24 24 23 21 22 22 22 23 24 24 23 22 22
69 65 61 63 67 65 58 49 44 40 39 39 38 36 36 35 34 36 37 37 38 40 45 53 63 70 73 79 90 96 96 98 99 99 98 98 96 91 87 84 82 81 81 83 84 82 85 87 82 79 77 72 70 69 64 65 70 73 73 72 70 69 70 72 74 65 53 58 59 44 37 37 29 24 28 27 25 24 23 22 23 24 25 25 25 24 22 22
70 66 61 61 63 63 59 52 43 38 36 35 35 33 32 31 32 35 35 32 34 38 42 48 56 64 66 70 80 88 93 99 99 97 97 97 96 93 88 85 86 86 85 86 85 83 86 87 81 79 81 77 72 70 67 67 70 71 73 73 71 69 69 69 64 53 50 58 52 35 36 38 27 23 27 27 26 27 25 24 25 25 26 26 25 24 22 22
75 72 67 65 62 56 54 51 47 46 43 41 43 41 36 33 31 31 32 33 34 35 39 44 48 54 59 63 69 76 86 93 92 90 90 91 93 95 93 91 89 88 87 89 88 86 87 86 82 83 83 78 75 72 67 67 72 72 71 70 69 70 69 64 54 47 51 53 41 34 40 36 26 26 28 26 28 29 27 27 27 26 27 27 26 24 23 23
81 77 72 73 68 61 61 62 59 56 50 51 56 50 41 39 34 29 30 35 35 32 34 38 40 44 52 58 62 67 74 78 78 79 82 84 87 92 92 89 87 87 90 93 91 89 89 86 82 82 85 82 78 74 70 69 72 71 70 68 69 69 67 60 50 47 55 50 37 41 46 36 26 28 27 26 27 29 28 28 28 27 27 28 27 25 24 24
82 79 76 80 78 69 68 68 66 64 58 55 57 51 46 45 36 29 31 31 30 30 30 31 33 36 44 52 56 58 63 67 68 73 80 80 79 81 83 82 81 85 89 91 89 88 88 86 83 85 89 83 75 76 75 72 73 76 73 69 67 64 59 53 46 47 51 45 42 51 50 34 25 25 25 25 26 27 28 27 27 27 27 28 28 27 25 24
80 82 81 84 82 76 71 67 69 72 66 56 49 42 41 38 30 29 34 30 26 26 26 26 28 32 39 47 49 49 54 59 62 70 81 82 79 82 86 85 84 85 85 85 85 85 85 83 81 84 84 77 73 77 77 77 85 85 71 59 55 51 48 48 47 46 44 42 45 49 39 27 25 27 26 27 26 26 26 26 26 27 26 26 27 27 27 25